TimePDT,TemperatureF,Dew PointF,Humidity,Sea Level PressureIn,VisibilityMPH,Wind Direction,Wind SpeedMPH,Gust SpeedMPH,PrecipitationIn,Events,Conditions,WindDirDegrees,DateUTC
12:56 AM,44.1,36.0,73,29.97,10.0,Calm,Calm,-,N/A,,Partly Cloudy,0,2014-04-17 07:56:00
1:56 AM,44.1,36.0,73,29.94,10.0,ESE,4.6,-,N/A,,Clear,120,2014-04-17 08:56:00
2:56 AM,43.0,35.1,74,29.92,10.0,Calm,Calm,-,N/A,,Scattered Clouds,0,2014-04-17 09:56:00
3:56 AM,42.1,34.0,73,29.90,10.0,SSW,4.6,-,N/A,,Clear,210,2014-04-17 10:56:00
4:56 AM,43.0,35.1,74,29.88,10.0,Calm,Calm,-,N/A,,Scattered Clouds,0,2014-04-17 11:56:00
5:56 AM,43.0,35.1,74,29.86,10.0,Calm,Calm,-,N/A,,Overcast,0,2014-04-17 12:56:00
6:56 AM,43.0,36.0,76,29.86,10.0,Calm,Calm,-,N/A,,Mostly Cloudy,0,2014-04-17 13:56:00
7:56 AM,46.0,37.0,71,29.85,10.0,Calm,Calm,-,N/A,,Overcast,0,2014-04-17 14:56:00
10:56 AM,48.9,42.1,77,29.84,10.0,NNW,6.9,-,0.00,,Overcast,330,2014-04-17 17:56:00
11:20 AM,48.0,43.0,83,29.85,10.0,NW,10.4,-,0.00,Rain,Light Rain,320,2014-04-17 18:20:00
11:56 AM,48.0,43.0,83,29.85,9.0,NNW,9.2,-,0.01,Rain,Light Rain,330,2014-04-17 18:56:00
12:52 PM,48.2,44.6,87,29.85,10.0,WNW,6.9,-,0.00,Rain,Light Rain,300,2014-04-17 19:52:00
12:56 PM,48.9,43.0,80,29.86,10.0,WNW,6.9,-,0.00,Rain,Light Rain,300,2014-04-17 19:56:00
1:56 PM,48.9,43.0,80,29.86,10.0,NW,6.9,-,0.01,Rain,Light Rain,320,2014-04-17 20:56:00
2:56 PM,48.0,41.0,77,29.87,7.0,Calm,Calm,-,0.02,Rain,Light Rain,0,2014-04-17 21:56:00
3:56 PM,48.9,41.0,74,29.86,10.0,North,3.5,-,0.01,Rain,Light Rain,10,2014-04-17 22:56:00
4:52 PM,50.0,37.4,62,29.86,10.0,Variable,3.5,-,0.00,,Scattered Clouds,0,2014-04-17 23:52:00
4:56 PM,51.1,39.0,63,29.86,10.0,NNE,4.6,-,0.00,,Mostly Cloudy,20,2014-04-17 23:56:00
5:56 PM,50.0,37.0,61,29.86,10.0,North,6.9,-,N/A,,Mostly Cloudy,360,2014-04-18 00:56:00
6:56 PM,48.9,37.0,64,29.87,10.0,North,4.6,-,N/A,,Overcast,360,2014-04-18 01:56:00
7:56 PM,46.9,37.9,71,29.88,10.0,East,4.6,-,0.00,,Overcast,100,2014-04-18 02:56:00
8:56 PM,45.0,37.9,76,29.89,10.0,East,5.8,-,N/A,,Partly Cloudy,90,2014-04-18 03:56:00
9:56 PM,46.0,35.1,66,29.91,10.0,WNW,9.2,-,N/A,,Partly Cloudy,290,2014-04-18 04:56:00
10:56 PM,45.0,34.0,65,29.91,10.0,WNW,9.2,-,N/A,,Clear,300,2014-04-18 05:56:00
11:56 PM,42.1,33.1,70,29.94,10.0,West,4.6,-,N/A,,Clear,270,2014-04-18 06:56:00